Weather in Miamisburg

United States     39°38′29″N   84°17′10″W
temp.,
°C
wind,
m/s
gust,
m/s
humid.,
%
clouds,
%
prec.,
mm/h
press.,
hPa
HPBL,
m
17 may, mon
mon1723:00+14sse2371100 0.0 102262
02:00+13sse2379100 0.0 102289
05:00+13e2479100 0.0 102185
08:00+12ese4993100 2.1 1022376
11:00+12se31093100 3.3 1024426
14:00+13ese51188100 3.6 1023477
17:00+15ese4887100 0.6 1023516
20:00+14ese3794100 1.3 1023345
18 may, tue
tue1823:00+13ese3699100 3.1 1024213
02:00+13ese3798100 4.4 1023202
05:00+13ese2697100 0.1 1023191
08:00+13ese2795100 0.7 1024206
11:00+15se3894100 1.4 1025276
14:00+18sse3683100 1.7 1024440
17:00+17s3892100 0.6 1024441
20:00+16sse4990100 0.6 1024441
19 may, wed
wed1923:00+15se3993100 0.1 1024291
02:00+15se3119398 1.4 1023281
05:00+15se31095100 0.8 1024324
08:00+16sse31192100 0.9 1025410
11:00+20s4878100 0.3 1026550
14:00+25s565983 0.3 10241318
17:00+25s456066 0.3 10231375
20:00+22ssw2480100 1.1 1024101
20 may, thu
thu2023:00+18sse239096 0.1 102561
02:00+17sse3689100 0.1 102598
05:00+16sse228869 0.0 102542
08:00+18s258440 0.0 1027143
11:00+24ssw3466100 0.0 1027532
14:00+27sw3455100 0.0 10261222
17:00+27sw345138 0.0 10251849
20:00+24wsw2270100 0.0 102527
21 may, fri
fri2123:00+20sw2283100 0.0 102618
02:00+19wsw1186100 0.0 102711
05:00+18sw228926 0.0 102724
08:00+19sw238478 0.0 1029117
11:00+25sw346712 0.1 1029697
14:00+27wsw4454100 0.1 10281658
17:00+25wsw3566100 0.0 1027471
20:00+23wsw2474100 0.1 102793